DW9246 Weather Reports


time (UTC)temp
C
wind
direction
speed
KPH
gust
KPH
rain 1hr
cm
rain 24hr
cm
rain mn
cm
humidity
%
barometer
mb
20260507123018 16 158 16.1 29.0 0.00 0.00 0.00 72 1013.9
20260507122016 16 148 16.1 29.0 0.00 0.00 0.00 72 1014.1
20260507121015 16 151 16.1 25.7 0.00 0.00 0.00 72 1014.2
20260507120017 16 152 11.3 20.9 0.00 0.00 0.00 72 1014.3
20260507115016 16 162 16.1 29.0 0.00 0.00 0.00 72 1014.2
20260507112016 16 149 11.3 22.5 0.00 0.00 0.00 71 1014.4
20260507110017 16 154 11.3 20.9 0.00 0.00 0.00 74 1014.6
20260507105016 16 152 12.9 24.1 0.00 0.00 0.00 74 1014.6
20260507104016 16 155 16.1 24.1 0.00 0.00 0.00 74 1014.8
20260507103019 16 158 14.5 24.1 0.00 0.00 0.00 76 1014.7
20260507100021 16 149 9.7 20.9 0.00 0.00 0.00 73 1014.7
20260507094014 16 149 9.7 17.7 0.00 0.00 0.00 73 1014.9
20260507093016 16 136 8.0 19.3 0.00 0.00 0.00 73 1014.8
20260507092016 16 152 8.0 19.3 0.00 0.00 0.00 73 1014.8
20260507091016 16 144 4.8 12.9 0.00 0.00 0.00 72 1014.8
20260507090015 16 81 1.6 6.4 0.00 0.00 0.00 72 1014.8
20260507085016 16 111 4.8 9.7 0.00 0.00 0.00 72 1014.9
20260507083016 16 115 8.0 16.1 0.00 0.00 0.00 72 1014.6
20260507082016 15 100 6.4 16.1 0.00 0.00 0.00 75 1014.5
20260507081016 15 76 6.4 16.1 0.00 0.00 0.00 76 1014.4
20260507080017 15 106 6.4 14.5 0.00 0.00 0.00 77 1014.6
20260507075016 15 79 4.8 12.9 0.00 0.00 0.00 79 1014.7
20260507074015 14 100 8.0 14.5 0.00 0.00 0.00 78 1014.7
20260507073016 15 87 9.7 14.5 0.00 0.00 0.00 77 1014.9
20260507072016 15 97 6.4 14.5 0.00 0.00 0.00 76 1014.9
20260507071019 15 101 6.4 14.5 0.00 0.00 0.00 76 1014.8
20260507070018 15 116 4.8 14.5 0.00 0.00 0.00 76 1014.8
20260507065016 14 104 6.4 12.9 0.00 0.00 0.00 75 1014.8
20260507064016 15 111 6.4 12.9 0.00 0.00 0.00 73 1014.6
20260507063016 15 104 4.8 11.3 0.00 0.00 0.00 73 1014.4
20260507062016 15 72 3.2 9.7 0.00 0.00 0.00 72 1014.4
20260507061017 14 350 0.0 3.2 0.00 0.00 0.00 77 1014.2
20260507060021 13 350 0.0 1.6 0.00 0.00 0.00 79 1014.0
20260507055022 12 350 3.2 4.8 0.00 0.00 0.00 80 1014.0
20260507054017 12 349 3.2 4.8 0.00 0.00 0.00 80 1013.7
20260507053016 11 349 3.2 6.4 0.00 0.00 0.00 80 1013.8
20260507052017 11 349 4.8 8.0 0.00 0.00 0.00 80 1013.6
20260507051015 11 349 4.8 6.4 0.00 0.00 0.00 81 1013.6
20260507050019 11 349 4.8 6.4 0.00 0.00 0.00 81 1013.7
20260507045016 11 349 4.8 6.4 0.00 0.00 0.00 82 1013.5
20260507043017 11 349 4.8 8.0 0.00 0.00 0.00 83 1013.6
20260507041016 11 349 6.4 8.0 0.00 0.00 0.00 83 1013.7
20260507040023 11 349 4.8 6.4 0.00 0.00 0.00 84 1013.7
20260507034017 11 350 6.4 8.0 0.00 0.00 0.00 83 1013.6
20260507033016 11 350 4.8 8.0 0.00 0.00 0.00 83 1013.6
20260507031016 11 350 4.8 6.4 0.00 0.00 0.00 83 1013.5
20260507024017 11 349 4.8 8.0 0.00 0.00 0.00 82 1013.6
20260507023017 11 350 4.8 8.0 0.00 0.00 0.00 83 1013.6
20260507022016 11 349 4.8 8.0 0.00 0.00 0.00 83 1013.5
20260507021018 11 350 3.2 6.4 0.00 0.00 0.00 83 1013.5
20260507020018 11 349 4.8 8.0 0.00 0.00 0.00 83 1013.4
20260507015016 11 350 6.4 8.0 0.00 0.00 0.00 83 1013.4
20260507014016 11 349 4.8 6.4 0.00 0.00 0.00 83 1013.4
20260507013015 11 349 4.8 6.4 0.00 0.00 0.00 82 1013.4
20260507012019 11 349 4.8 6.4 0.00 0.00 0.00 83 1013.5
20260507011016 12 349 4.8 6.4 0.00 0.00 0.00 83 1013.4
20260507010017 11 349 4.8 6.4 0.00 0.00 0.00 83 1013.4
20260507005015 11 350 4.8 8.0 0.00 0.00 0.00 83 1013.6
20260507004017 11 349 4.8 6.4 0.00 0.00 0.00 83 1013.9
20260507003016 11 349 6.4 8.0 0.00 0.00 0.00 82 1013.9
20260507002015 11 349 6.4 8.0 0.00 0.00 0.00 82 1013.9
20260507001017 11 349 4.8 8.0 0.00 0.00 0.00 82 1014.0
20260507000020 11 349 6.4 8.0 0.00 0.00 0.00 82 1013.9
20260506234016 11 349 4.8 8.0 0.00 0.00 0.00 82 1014.0
20260506233018 12 349 6.4 8.0 0.00 0.00 0.00 82 1013.9
20260506231016 12 350 4.8 8.0 0.00 0.00 0.00 81 1014.0
20260506230017 12 349 4.8 8.0 0.00 0.00 0.00 81 1014.0
20260506225016 12 349 6.4 9.7 0.00 0.00 0.00 81 1013.8
20260506224019 12 349 6.4 8.0 0.00 0.00 0.00 81 1013.9
20260506223016 12 349 6.4 8.0 0.00 0.00 0.00 81 1013.8
20260506222015 12 349 6.4 8.0 0.00 0.00 0.00 81 1013.7
20260506221016 12 349 6.4 8.0 0.00 0.00 0.00 81 1013.8
20260506220018 12 349 6.4 8.0 0.00 0.00 0.00 81 1013.7
20260506215016 12 350 6.4 8.0 0.00 0.00 0.00 81 1013.9
20260506214016 12 349 4.8 8.0 0.00 0.00 0.00 80 1013.8
20260506213015 12 350 6.4 8.0 0.00 0.00 0.00 80 1013.8
20260506212016 12 356 4.8 8.0 0.00 0.00 0.00 80 1013.7
20260506211015 13 16 4.8 8.0 0.00 0.00 0.00 79 1013.7
20260506205016 13 10 4.8 8.0 0.00 0.00 0.00 80 1013.7
20260506204015 13 349 4.8 6.4 0.00 0.00 0.00 80 1013.6
20260506203016 13 349 4.8 8.0 0.00 0.00 0.00 80 1013.3
20260506200015 13 354 3.2 6.4 0.00 0.00 0.00 79 1013.0
20260506195015 13 350 4.8 6.4 0.00 0.00 0.00 79 1012.8
20260506194015 13 345 3.2 6.4 0.00 0.00 0.00 79 1012.7
20260506193015 14 271 3.2 6.4 0.00 0.00 0.00 78 1012.4
20260506192014 15 169 1.6 8.0 0.00 0.00 0.00 77 1012.5
20260506190019 15 156 3.2 9.7 0.00 0.00 0.00 76 1012.3
20260506185015 15 196 3.2 11.3 0.00 0.00 0.00 76 1012.1
20260506184016 16 168 4.8 11.3 0.00 0.00 0.00 75 1011.8
20260506183015 16 175 3.2 6.4 0.00 0.00 0.00 73 1011.9
20260506182015 16 177 4.8 12.9 0.00 0.00 0.00 72 1011.8
20260506181015 16 190 8.0 16.1 0.00 0.00 0.00 70 1011.7
20260506175015 17 197 8.0 17.7 0.00 0.00 0.00 68 1011.4
20260506174015 17 194 11.3 24.1 0.00 0.00 0.00 66 1011.5
20260506173015 17 196 9.7 25.7 0.00 0.00 0.00 67 1011.4
20260506172015 17 194 12.9 24.1 0.00 0.00 0.00 64 1011.4
20260506171017 18 189 11.3 20.9 0.00 0.00 0.00 69 1011.4
20260506170016 18 182 11.3 22.5 0.00 0.00 0.00 66 1011.2
20260506164015 18 140 11.3 20.9 0.00 0.00 0.00 63 1011.1
20260506163016 19 150 12.9 19.3 0.00 0.00 0.00 63 1011.1
20260506162015 19 135 9.7 17.7 0.00 0.03 0.00 62 1011.1
20260506161015 18 146 9.7 19.3 0.00 0.05 0.00 63 1011.1
20260506160015 19 159 11.3 17.7 0.00 0.05 0.00 58 1011.1
20260506155014 19 130 8.0 14.5 0.00 0.05 0.00 60 1011.0
20260506154015 18 162 6.4 11.3 0.00 0.05 0.00 58 1011.0
20260506150015 18 161 6.4 17.7 0.00 0.05 0.00 58 1011.3
20260506145015 18 156 9.7 20.9 0.00 0.05 0.00 57 1011.3
20260506144015 18 131 6.4 12.9 0.00 0.05 0.00 59 1011.3
20260506143014 18 153 9.7 16.1 0.00 0.05 0.00 60 1011.5
20260506142015 18 161 11.3 20.9 0.00 0.05 0.00 60 1011.5
20260506141015 18 164 14.5 27.4 0.00 0.05 0.00 59 1011.6
20260506140016 18 166 14.5 24.1 0.00 0.05 0.00 60 1011.7
20260506135014 18 160 17.7 27.4 0.00 0.05 0.00 61 1011.8
20260506134015 18 143 14.5 27.4 0.00 0.05 0.00 62 1011.7
20260506133017 18 128 12.9 22.5 0.00 0.05 0.00 60 1011.7
20260506132015 18 138 12.9 33.8 0.00 0.05 0.00 60 1011.9
20260506131016 20 127 9.7 27.4 0.00 0.05 0.00 56 1011.6
20260506130016 19 339 6.4 14.5 0.00 0.05 0.00 52 1012.0
20260506125014 20 301 8.0 17.7 0.00 0.05 0.00 52 1012.2
20260506124014 19 239 11.3 24.1 0.00 0.05 0.00 53 1012.2